This is the latest recevied weather packets stored in our database for station/object N9BSW. If no packets are shown the sender has not sent any weather packets the latest 10 day(s).
| Time | Temp. | Humidity | Pressure | Rain* | Wind** | Luminosity | Snow |
|---|---|---|---|---|---|---|---|
| 1777783439 | 2.22° C | 89% | 1019.2 hPa | 0 mm | - | 0 W/m² | - |
| 1777783136 | 1.67° C | 89% | 1019.1 hPa | 0 mm | - | 0 W/m² | - |
| 1777782833 | 1.67° C | 88% | 1018.9 hPa | 0 mm | - | 0 W/m² | - |
| 1777782529 | 1.67° C | 87% | 1018.9 hPa | 0 mm | - | 0 W/m² | - |
| 1777782226 | 2.22° C | 87% | 1018.9 hPa | 0 mm | - | 0 W/m² | - |
| 1777781921 | 2.22° C | 86% | 1019.2 hPa | 0 mm | - | 0 W/m² | - |
| 1777781619 | 2.78° C | 86% | 1019 hPa | 0 mm | - | 0 W/m² | - |
| 1777781317 | 2.78° C | 86% | 1018.9 hPa | 0 mm | - | 0 W/m² | - |
| 1777781014 | 2.22° C | 86% | 1018.8 hPa | 0 mm | - | 0 W/m² | - |
| 1777780711 | 2.22° C | 86% | 1018.9 hPa | 0 mm | - | 0 W/m² | - |
| 1777780408 | 2.78° C | 85% | 1019.1 hPa | 0 mm | - | 0 W/m² | - |
| 1777780105 | 2.78° C | 85% | 1018.8 hPa | 0 mm | - | 0 W/m² | - |
| 1777779802 | 2.78° C | 85% | 1019 hPa | 0 mm | - | 0 W/m² | - |
| 1777779500 | 2.22° C | 85% | 1019 hPa | 0 mm | - | 0 W/m² | - |
| 1777779197 | 2.78° C | 83% | 1019.1 hPa | 0 mm | - | 0 W/m² | - |
| 1777778895 | 2.78° C | 82% | 1018.9 hPa | 0 mm | - | 0 W/m² | - |
| 1777778594 | 2.78° C | 81% | 1019 hPa | 0 mm | - | 0 W/m² | - |
| 1777778290 | 3.33° C | 80% | 1019.2 hPa | 0 mm | - | 0 W/m² | - |
| 1777777989 | 3.33° C | 80% | 1019 hPa | 0 mm | - | 0 W/m² | - |
| 1777777684 | 3.33° C | 80% | 1019 hPa | 0 mm | - | 0 W/m² | - |
| 1777777381 | 3.33° C | 78% | 1019.1 hPa | 0 mm | - | 0 W/m² | - |
| 1777777078 | 3.33° C | 77% | 1019 hPa | 0 mm | - | 0 W/m² | - |
| 1777776775 | 3.89° C | 76% | 1019.2 hPa | 0 mm | - | 0 W/m² | - |
| 1777776472 | 3.89° C | 76% | 1019.3 hPa | 0 mm | - | 0 W/m² | - |
| 1777776169 | 3.89° C | 75% | 1019 hPa | 0 mm | - | 0 W/m² | - |
* Rain latest hour (hover to see other rain measurements)
** Current wind speed in m/s (hover to see current wind gust speed)